Погода в Игнатполе

Украина / Житомирская область     51°08′49″N   28°43′34″E
темп.,
°C
ветер,
м/с
пор.,
м/с
влажн.,
%
обл.,
%
осадки,
мм/ч
давл.,
гПа
погр.,
м
27 сентября, пн
пн2700:00+8ссз36880 0.0 1023107
03:00+6с26945 0.0 1024142
06:00+5с26960 0.0 1024124
09:00+8ссв36840 0.0 1025292
12:00+12св456215 0.0 1025986
15:00+14св445543 0.0 10241359
18:00+11св476662 0.0 1024563
21:00+7всв228140 0.0 102538
28 сентября, вт
вт2800:00+9в0171100 0.0 102511
03:00+7св22845 0.0 102531
06:00+6св23945 0.0 102540
09:00+8св368516 0.0 1026256
12:00+13всв346116 0.0 10271112
15:00+14всв4453100 0.1 10261624
18:00+11всв3667100 0.0 1027240
21:00+9всв378161 0.1 1029220
29 сентября, ср
ср2900:00+9всв3787100 0.1 1030296
03:00+8в3791100 0.1 1031347
06:00+8в4890100 0.0 1031403
09:00+8вюв488222 0.0 1032472
12:00+12вюв456198 0.0 10331269
15:00+11вюв3460100 0.0 10321095
18:00+10вюв366591 0.0 1032545
21:00+9юв3661100 0.0 1033312
30 сентября, чт
чт3000:00+7вюв23711 0.0 103339
03:00+5вюв35830 0.0 1033106
06:00+4вюв24850 0.0 103377
09:00+7юв37690 0.0 1033246
12:00+12юв46480 0.0 1033994
15:00+14ююв46410 0.0 10311350
18:00+11юв34540 0.0 103173
21:00+7вюв36650 0.0 103289
1 октября, пт
пт100:00+6юв39670 0.0 1033154
03:00+5юв36695 0.0 1033107
06:00+4юв347131 0.0 103375
09:00+7ююв376166 0.0 1033196
12:00+13ююв4642100 0.0 1033724
15:00+15ююв4638100 0.0 10311204
18:00+12юв2353100 0.0 103145
21:00+9юв355772 0.0 103171